Flag for South Korea Weather past 2 weeks in Cheongju, South Korea

Now
68 °F

Mostly cloudy.


Feels Like: 68 °F
Forecast: 67 / 79 °F
Wind: 6 mph from Northeast

Location: Chongju Ab

Current Time: Sep 5, 2015 at 8:07:05 PM

Latest Report: Sep 5, 2015 at 7:00 PM


Visibility: 6 mi

Pressure: 29.74 "Hg

Humidity: 83%

Dew point: 63 °F

Location of CheongjuLocation

Historic Weather in Cheongju — Graph

°F

Cheongju temperature yesterday

Maximum temperature yesterday: 84 °F (at 2:00 PM)
Minimum temperature yesterday: 66 °F (at 4:00 AM)
Average temperature yesterday: 75 °F

Past Weeks' High & Low Weather Summary

 TemperatureHumidityPressure
High88 °F (Aug 23, 5:00 PM)88% (Aug 25, 6:00 AM)29.92 "Hg (Aug 25, 6:00 AM)
Low63 °F (Aug 28, 3:00 AM)33% (Aug 29, 4:00 PM)29.47 "Hg (Aug 25, 1:00 PM)
Average74 °F66%29.77 "Hg
* Reported Aug 21 7:00 PM — Sep 5 7:00 PM, Cheongju, Weather by CustomWeather, © 2015

Note: Actual official high and low records may vary slightly from our data, if they occured in-between our weather recording intervals... More about our weather records

Advertising

Cheongju weather history for previous 24 hours

 ConditionsComfort  
Time TempWeatherWind HumidityBarometerVisibility
7:00 PM
Sat, Sep 5
68 °FMostly cloudy.6 mph83%29.74 "Hg6 mi
6:00 PM68 °FLight rain. Mostly cloudy.6 mph83%29.74 "Hg6 mi
5:00 PM68 °FLight rain. Mostly cloudy.1 mph83%29.77 "Hg6 mi
4:00 PM66 °FLight rain. Fog.5 mph83%29.77 "Hg3 mi
3:00 PM72 °FLight rain. Mostly cloudy.5 mph78%29.77 "Hg4 mi
2:04 PM72 °FLight rain. Mostly cloudy.6 mph78%29.77 "Hg4 mi
2:00 PM72 °FRain. Mostly cloudy.6 mph78%29.77 "Hg4 mi
1:00 PM72 °FRain. Mostly cloudy.7 mph83%29.77 "Hg4 mi
12:00 PM79 °FPartly sunny.3 mph61%29.80 "Hg6 mi
11:00 AM77 °FPartly sunny.3 mph65%29.83 "Hg6 mi
10:00 AM75 °FPartly sunny.2 mph69%29.83 "Hg6 mi
9:00 AM72 °FOvercast.2 mph78%29.83 "Hg6 mi
8:00 AM70 °FOvercast.3 mph83%29.83 "Hg6 mi
7:00 AM70 °FPartly sunny.3 mph78%29.83 "Hg6 mi
6:00 AM70 °FPartly cloudy.5 mph83%29.83 "Hg4 mi
5:00 AM70 °FPartly cloudy.1 mph78%29.86 "Hg4 mi
4:00 AM70 °FPartly cloudy.3 mph78%29.86 "Hg4 mi
3:00 AM70 °FPartly cloudy.2 mph78%29.86 "Hg4 mi
2:00 AM72 °FPassing clouds.1 mph73%29.86 "Hg5 mi
1:00 AM72 °FPartly cloudy.1 mph73%29.86 "Hg5 mi
12:00 AM73 °FClear.1 mph65%29.89 "Hg6 mi
11:00 PM
Fri, Sep 4
72 °FClear.1 mph65%29.89 "Hg10 mi
10:00 PM73 °FClear.3 mph69%29.89 "Hg10 mi
9:00 PM77 °FPassing clouds.5 mph57%29.89 "HgN/A
8:00 PM75 °FClear.3 mph57%29.86 "Hg10 mi
Weather by CustomWeather, © 2015

See weather overviewHow to use our weather pages